Notices

What's New in latest Release from April 7th, 2021:

- Updated Glossary, including Speed of Maximum Gust, and Total Hourly Precipitation

- Updated national and regional climate services offices contacts and prices information

- Addition of station inventory lists for 1981-2010, 1971-2000, and 1961-1990 Normals.

If you haven't already, please take our survey and provide feedback about our website: https://eccc.sondage-survey.ca/f/LanguageSelection.aspx?s=442ca660-fcf1-47c0-95a9-59707d6fd709

Hourly Data Report for March 29, 2021

NANAIMO A
BRITISH COLUMBIA
Current Station Operator: NAVCAN

49°03'16.000" N
123°52'12.000" W
28.00 m
1025365
YCD

Download Data

Hourly Data (March 2021)
Hourly Data Report for March 29, 2021
TIME
LST
Temp Definition
°C
Dew Point Definition
°C
Rel Hum Definition
%
Precip. Amount Definition
mm

Wind Dir Definition
10's deg

Wind Spd Definition
km/h
Visibility Definition
km
Stn Press Definition
kPa
Hmdx Definition


Wind Chill Definition


Weather Definition


00:00 4.7 -5.8 47 LegendMM 27 22 LegendMM 101.56     LegendNANA
01:00 4.8 -4.4 51 LegendMM 25 14 LegendMM 101.67     LegendNANA
02:00 5.2 -4.7 49 LegendMM 31 34 LegendMM 101.78     LegendNANA
03:00 4.7 -4.0 53 LegendMM 31 14 LegendMM 101.89     LegendNANA
04:00 4.2 -4.3 54 LegendMM 30 14 LegendMM 101.98     LegendNANA
05:00 4.2 -4.4 54 LegendMM 29 19 LegendMM 102.04     LegendNANA
06:00 4.0 -4.1 56 LegendMM 29 16 LegendMM 102.15     LegendNANA
07:00 5.0 -3.4 54 LegendMM 31 20 LegendMM 102.21     LegendNANA
08:00 6.2 -3.9 48 LegendMM 31 15 LegendMM 102.28     LegendNANA
09:00 7.0 -4.0 45 LegendMM 32 25 LegendMM 102.32     LegendNANA
10:00 7.8 -3.5 45 LegendMM 33 21 LegendMM 102.38     LegendNANA
11:00 8.6 -2.7 45 LegendMM 32 16 LegendMM 102.42     LegendNANA
12:00 9.2 -4.2 38 LegendMM 30 23 LegendMM 102.44     LegendNANA
13:00 9.2 -6.5 32 LegendMM 32 23 LegendMM 102.43     LegendNANA
14:00 10.7 -3.9 36 LegendMM 35 15 LegendMM 102.44     LegendNANA
15:00 10.4 -5.2 33 LegendMM 33 21 LegendMM 102.40     LegendNANA
16:00 10.8 -6.2 30 LegendMM 34 17 LegendMM 102.37     LegendNANA
17:00 10.0 -5.7 33 LegendMM 33 21 LegendMM 102.39     LegendNANA
18:00 8.8 -5.8 35 LegendMM 32 10 LegendMM 102.40     LegendNANA
19:00 7.1 -4.2 44 LegendMM 27 10 LegendMM 102.44     LegendNANA
20:00 6.7 -4.0 46 LegendMM 26 10 LegendMM 102.47     LegendNANA
21:00 5.8 -3.7 51 LegendMM 28 9 LegendMM 102.48     LegendNANA
22:00 5.3 -3.0 55 LegendMM 29 9 LegendMM 102.46     LegendNANA
23:00 3.3 -2.9 64 LegendMM 25 9 LegendMM 102.50     LegendNANA

Notes on Data Quality.

Legend

  • E = Estimated
  • M = Missing
  • NA = Not Available*
  • [empty] = Indicates an unobserved value
Date modified: